Location: Camoruquito
(9.9001°N, 67.3564°W)
Time: 14:02:46
(UTC+00:00)

Cosmos 468 - Pass Details

Date: 14 April 2024
Orbit: 761 x 781 km, 74.0° (Epoch: 30 May)

Event Time Altitude Azimuth Distance (km) Brightness Sun altitude
Exits shadow 08:37:39 68° 206° (SSW) 835 4.4 -25.3°
Maximum altitude 08:38:21 84° 281° (WNW) 782 4.4 -25.1°
Drops below altitude 10° 08:43:37 10° 11° (N) 2,312 7.3 -23.9°
Sets 08:45:59 0° 12° (NNE) 3,235 8.1 -23.3°
